This is the latest recevied weather packets stored in our database for station/object N0ZMJ-4. If no packets are shown the sender has not sent any weather packets the latest 10 day(s).
| Time | Temp. | Humidity | Pressure | Rain* | Wind** | Luminosity | Snow |
|---|---|---|---|---|---|---|---|
| 1777748103 | 18.33° C | 42% | 1013.6 hPa | 0 mm | - | - | - |
| 1777747803 | 18.33° C | 43% | 1013.7 hPa | 0 mm | - | - | - |
| 1777747502 | 18.33° C | 44% | 1013.8 hPa | 0 mm | - | - | - |
| 1777747203 | 18.33° C | 41% | 1013.7 hPa | 0 mm | - | - | - |
| 1777746903 | 18.33° C | 44% | 1013.9 hPa | 0 mm | - | - | - |
| 1777746603 | 18.33° C | 44% | 1014 hPa | 0 mm | - | - | - |
| 1777746303 | 17.78° C | 45% | 1014 hPa | 0 mm | - | - | - |
| 1777746003 | 17.78° C | 44% | 1014.1 hPa | 0 mm | - | - | - |
| 1777745703 | 17.22° C | 45% | 1014.3 hPa | 0 mm | - | - | - |
| 1777745403 | 17.22° C | 45% | 1014.4 hPa | 0 mm | - | - | - |
| 1777745103 | 17.22° C | 45% | 1014.4 hPa | 0 mm | - | - | - |
| 1777744802 | 17.22° C | 45% | 1014.5 hPa | 0 mm | - | - | - |
| 1777744503 | 17.22° C | 46% | 1014.5 hPa | 0 mm | - | - | - |
| 1777744202 | 17.22° C | 48% | 1014.6 hPa | 0 mm | - | - | - |
| 1777743903 | 16.67° C | 46% | 1014.6 hPa | 0 mm | - | - | - |
| 1777743603 | 16.67° C | 45% | 1014.7 hPa | 0 mm | - | - | - |
| 1777743303 | 16.67° C | 45% | 1014.8 hPa | 0 mm | - | - | - |
| 1777743003 | 16.67° C | 45% | 1014.9 hPa | 0 mm | - | - | - |
| 1777742703 | 16.67° C | 44% | 1014.9 hPa | 0 mm | - | - | - |
| 1777742403 | 16.67° C | 45% | 1015 hPa | 0 mm | - | - | - |
| 1777742103 | 16.67° C | 46% | 1015.2 hPa | 0 mm | - | - | - |
| 1777741803 | 16.11° C | 44% | 1015.3 hPa | 0 mm | - | - | - |
| 1777741503 | 16.11° C | 45% | 1015.3 hPa | 0 mm | - | - | - |
| 1777741203 | 16.11° C | 46% | 1015.4 hPa | 0 mm | - | - | - |
| 1777740902 | 16.11° C | 46% | 1015.3 hPa | 0 mm | - | - | - |
* Rain latest hour (hover to see other rain measurements)
** Current wind speed in m/s (hover to see current wind gust speed)